| time (UTC) | temp F | wind direction | speed MPH | gust MPH | rain 1hr in | rain 24hr in | rain mn in | humidity % | barometer mb |
| 20260905181044 | 60 | 300 | 5.0 | 7.0 | 0.00 | 0.00 | 0.00 | 74 | 1026.2 |
| 20260905180100 | 61 | 233 | 3.0 | 4.0 | 0.00 | 0.00 | 0.00 | 73 | 1026.1 |
| 20260905175058 | 61 | 270 | 5.0 | 7.0 | 0.00 | 0.00 | 0.00 | 73 | 1026.1 |
| 20260905174035 | 62 | 306 | 6.0 | 8.0 | 0.00 | 0.00 | 0.00 | 71 | 1026.2 |
| 20260905173032 | 63 | 283 | 9.0 | 11.0 | 0.00 | 0.00 | 0.00 | 72 | 1026.1 |
| 20260905172029 | 63 | 292 | 7.0 | 9.0 | 0.00 | 0.00 | 0.00 | 73 | 1025.8 |
| 20260905171026 | 63 | 281 | 7.0 | 9.0 | 0.00 | 0.00 | 0.00 | 71 | 1025.9 |
| 20260905170023 | 64 | 258 | 7.0 | 11.0 | 0.00 | 0.00 | 0.00 | 71 | 1025.8 |
| 20260905165020 | 63 | 285 | 7.0 | 9.0 | 0.00 | 0.00 | 0.00 | 74 | 1025.7 |
| 20260905164017 | 62 | 285 | 7.0 | 8.0 | 0.00 | 0.00 | 0.00 | 76 | 1025.6 |
| 20260905163105 | 62 | 276 | 5.0 | 7.0 | 0.00 | 0.00 | 0.00 | 76 | 1025.6 |
| 20260905162042 | 62 | 295 | 9.0 | 11.0 | 0.00 | 0.00 | 0.00 | 76 | 1025.4 |
| 20260905161039 | 62 | 244 | 7.0 | 10.0 | 0.00 | 0.00 | 0.00 | 75 | 1025.2 |
| 20260905160036 | 62 | 287 | 10.0 | 13.0 | 0.00 | 0.00 | 0.00 | 75 | 1025.3 |
| 20260905155033 | 63 | 258 | 8.0 | 11.0 | 0.00 | 0.00 | 0.00 | 72 | 1025.0 |
| 20260905154030 | 63 | 315 | 9.0 | 13.0 | 0.00 | 0.00 | 0.00 | 72 | 1024.7 |
| 20260905153027 | 64 | 303 | 11.0 | 16.0 | 0.00 | 0.01 | 0.00 | 71 | 1024.7 |
| 20260905152024 | 64 | 326 | 10.0 | 14.0 | 0.00 | 0.01 | 0.00 | 68 | 1024.7 |
| 20260905151041 | 65 | 283 | 9.0 | 11.0 | 0.00 | 0.01 | 0.00 | 67 | 1024.5 |
| 20260905150019 | 64 | 325 | 12.0 | 14.0 | 0.00 | 0.01 | 0.00 | 69 | 1024.6 |
| 20260905145035 | 65 | 288 | 8.0 | 13.0 | 0.00 | 0.01 | 0.00 | 71 | 1024.4 |
| 20260905144042 | 64 | 287 | 12.0 | 16.0 | 0.00 | 0.01 | 0.00 | 72 | 1024.4 |
| 20260905143040 | 64 | 276 | 13.0 | 16.0 | 0.00 | 0.01 | 0.00 | 70 | 1024.3 |
| 20260905142036 | 64 | 306 | 10.0 | 14.0 | 0.00 | 0.01 | 0.00 | 69 | 1024.0 |
| 20260905141034 | 64 | 283 | 16.0 | 19.0 | 0.00 | 0.01 | 0.00 | 69 | 1024.2 |
| 20260905140031 | 64 | 285 | 9.0 | 13.0 | 0.00 | 0.01 | 0.00 | 72 | 1023.8 |
| 20260905135028 | 64 | 271 | 15.0 | 18.0 | 0.00 | 0.01 | 0.00 | 71 | 1023.8 |
| 20260905134105 | 64 | 295 | 11.0 | 14.0 | 0.00 | 0.01 | 0.00 | 70 | 1023.8 |
| 20260905133022 | 65 | 283 | 6.0 | 10.0 | 0.00 | 0.01 | 0.00 | 70 | 1023.6 |
| 20260905132039 | 65 | 284 | 12.0 | 16.0 | 0.00 | 0.01 | 0.00 | 68 | 1023.6 |
| 20260905131016 | 65 | 276 | 9.0 | 13.0 | 0.00 | 0.01 | 0.00 | 64 | 1023.5 |
| 20260905130043 | 65 | 315 | 13.0 | 19.0 | 0.00 | 0.01 | 0.00 | 69 | 1023.4 |
| 20260905125041 | 65 | 254 | 14.0 | 18.0 | 0.00 | 0.01 | 0.00 | 70 | 1023.3 |
| 20260905124038 | 65 | 288 | 14.0 | 19.0 | 0.00 | 0.01 | 0.00 | 71 | 1023.1 |
| 20260905123035 | 66 | 317 | 15.0 | 17.0 | 0.00 | 0.01 | 0.00 | 69 | 1023.2 |
| 20260905122033 | 64 | 287 | 15.0 | 19.0 | 0.00 | 0.01 | 0.00 | 72 | 1023.0 |
| 20260905121030 | 65 | 278 | 11.0 | 16.0 | 0.00 | 0.01 | 0.00 | 73 | 1023.0 |
| 20260905120028 | 64 | 269 | 13.0 | 18.0 | 0.00 | 0.01 | 0.00 | 71 | 1022.6 |
| 20260905115045 | 66 | 269 | 10.0 | 16.0 | 0.00 | 0.01 | 0.00 | 69 | 1022.5 |
| 20260905114023 | 64 | 269 | 8.0 | 11.0 | 0.00 | 0.01 | 0.00 | 70 | 1022.5 |
| 20260905113020 | 64 | 273 | 14.0 | 18.0 | 0.00 | 0.01 | 0.00 | 71 | 1022.5 |
| 20260905112017 | 65 | 272 | 13.0 | 17.0 | 0.00 | 0.01 | 0.00 | 71 | 1022.2 |
| 20260905111045 | 65 | 271 | 15.0 | 18.0 | 0.00 | 0.01 | 0.00 | 69 | 1021.9 |
| 20260905110042 | 65 | 272 | 10.0 | 15.0 | 0.00 | 0.01 | 0.00 | 69 | 1022.0 |
| 20260905105059 | 66 | 247 | 10.0 | 13.0 | 0.00 | 0.01 | 0.00 | 71 | 1021.8 |
| 20260905104036 | 64 | 312 | 14.0 | 19.0 | 0.00 | 0.01 | 0.00 | 72 | 1021.9 |
| 20260905103034 | 64 | 337 | 16.0 | 22.0 | 0.00 | 0.01 | 0.00 | 72 | 1021.7 |
| 20260905102050 | 64 | 274 | 16.0 | 19.0 | 0.00 | 0.01 | 0.00 | 72 | 1021.5 |
| 20260905101027 | 64 | 282 | 16.0 | 21.0 | 0.00 | 0.01 | 0.00 | 72 | 1021.3 |
| 20260905100044 | 65 | 254 | 8.0 | 14.0 | 0.00 | 0.01 | 0.00 | 71 | 1021.3 |
| 20260905095021 | 64 | 236 | 13.0 | 15.0 | 0.00 | 0.01 | 0.00 | 73 | 1021.1 |
| 20260905094018 | 64 | 273 | 12.0 | 16.0 | 0.00 | 0.01 | 0.00 | 74 | 1021.1 |
| 20260905093044 | 63 | 276 | 7.0 | 9.0 | 0.00 | 0.01 | 0.00 | 75 | 1020.8 |
| 20260905092041 | 63 | 270 | 9.0 | 13.0 | 0.00 | 0.01 | 0.00 | 77 | 1020.6 |
| 20260905091039 | 63 | 288 | 9.0 | 11.0 | 0.00 | 0.01 | 0.00 | 77 | 1020.6 |
| 20260905090036 | 63 | 277 | 12.0 | 14.0 | 0.00 | 0.01 | 0.00 | 75 | 1020.4 |
| 20260905085034 | 63 | 270 | 13.0 | 17.0 | 0.00 | 0.01 | 0.00 | 75 | 1020.4 |
| 20260905084031 | 64 | 249 | 8.0 | 13.0 | 0.00 | 0.01 | 0.00 | 71 | 1020.2 |
| 20260905083028 | 64 | 282 | 12.0 | 19.0 | 0.00 | 0.01 | 0.00 | 71 | 1020.0 |
| 20260905082026 | 63 | 230 | 9.0 | 14.0 | 0.00 | 0.01 | 0.00 | 75 | 1019.9 |
| 20260905081043 | 63 | 285 | 11.0 | 13.0 | 0.00 | 0.01 | 0.00 | 75 | 1019.7 |
| 20260905080021 | 63 | 277 | 16.0 | 22.0 | 0.00 | 0.01 | 0.00 | 77 | 1019.6 |
| 20260905075038 | 64 | 268 | 8.0 | 10.0 | 0.00 | 0.01 | 0.00 | 76 | 1019.3 |
| 20260905074016 | 63 | 276 | 11.0 | 16.0 | 0.00 | 0.01 | 0.00 | 75 | 1019.1 |
| 20260905073043 | 64 | 313 | 12.0 | 18.0 | 0.00 | 0.01 | 0.00 | 74 | 1019.2 |
| 20260905072041 | 64 | 283 | 11.0 | 14.0 | 0.00 | 0.01 | 0.00 | 75 | 1018.9 |
| 20260905071038 | 64 | 289 | 7.0 | 13.0 | 0.00 | 0.01 | 0.00 | 78 | 1018.8 |
| 20260905070036 | 63 | 266 | 8.0 | 10.0 | 0.00 | 0.01 | 0.00 | 79 | 967.6 |
| 20260905065033 | 63 | 271 | 4.0 | 8.0 | 0.00 | 0.01 | 0.00 | 79 | 1018.7 |
| 20260905064031 | 63 | 239 | 8.0 | 10.0 | 0.00 | 0.01 | 0.00 | 79 | 1018.7 |
| 20260905063028 | 63 | 281 | 9.0 | 14.0 | 0.00 | 0.01 | 0.00 | 79 | 1018.5 |
| 20260905062026 | 63 | 279 | 8.0 | 13.0 | 0.00 | 0.01 | 0.00 | 80 | 1018.3 |
| 20260905061023 | 63 | 248 | 10.0 | 11.0 | 0.00 | 0.01 | 0.00 | 80 | 1018.3 |
| 20260905060021 | 62 | 267 | 7.0 | 14.0 | 0.00 | 0.01 | 0.00 | 80 | 1018.1 |
| 20260905055058 | 62 | 262 | 3.0 | 6.0 | 0.00 | 0.01 | 0.00 | 81 | 1018.2 |
| 20260905054035 | 62 | 281 | 1.0 | 2.0 | 0.00 | 0.01 | 0.00 | 82 | 1018.1 |
| 20260905053043 | 62 | 242 | 1.0 | 4.0 | 0.00 | 0.01 | 0.00 | 82 | 1018.0 |
| 20260905052041 | 62 | 0.0 | 0.0 | 0.00 | 0.01 | 0.00 | 82 | 1017.8 | |
| 20260905051038 | 62 | 265 | 2.0 | 6.0 | 0.00 | 0.01 | 0.00 | 82 | 1017.6 |
| 20260905050035 | 62 | 273 | 3.0 | 7.0 | 0.00 | 0.01 | 0.00 | 82 | 1017.7 |
| 20260905045033 | 62 | 254 | 3.0 | 8.0 | 0.00 | 0.01 | 0.00 | 81 | 1017.5 |
| 20260905044050 | 62 | 236 | 5.0 | 10.0 | 0.00 | 0.01 | 0.00 | 80 | 1017.3 |
| 20260905043028 | 62 | 240 | 4.0 | 7.0 | 0.00 | 0.01 | 0.00 | 81 | 1017.4 |
| 20260905042026 | 62 | 265 | 5.0 | 8.0 | 0.00 | 0.01 | 0.00 | 82 | 1017.3 |
| 20260905041023 | 62 | 280 | 4.0 | 4.0 | 0.00 | 0.01 | 0.00 | 81 | 1017.4 |
| 20260905040020 | 62 | 300 | 3.0 | 11.0 | 0.00 | 0.01 | 0.00 | 81 | 1017.3 |
| 20260905035017 | 62 | 233 | 1.0 | 6.0 | 0.00 | 0.01 | 0.00 | 81 | 1017.3 |
| 20260905034045 | 62 | 247 | 5.0 | 8.0 | 0.00 | 0.01 | 0.00 | 81 | 1017.2 |
| 20260905033102 | 62 | 200 | 4.0 | 8.0 | 0.00 | 0.01 | 0.00 | 81 | 1017.3 |
| 20260905032039 | 62 | 252 | 2.0 | 6.0 | 0.00 | 0.01 | 0.00 | 81 | 1017.2 |
| 20260905031036 | 62 | 282 | 5.0 | 8.0 | 0.00 | 0.01 | 0.00 | 80 | 1017.2 |
| 20260905030054 | 62 | 218 | 1.0 | 4.0 | 0.00 | 0.01 | 0.00 | 79 | 1017.0 |
| 20260905025031 | 62 | 227 | 5.0 | 9.0 | 0.00 | 0.01 | 0.00 | 80 | 1017.0 |
| 20260905024028 | 61 | 260 | 1.0 | 4.0 | 0.00 | 0.01 | 0.00 | 80 | 1017.0 |
| 20260905023026 | 61 | 207 | 5.0 | 7.0 | 0.00 | 0.01 | 0.00 | 80 | 1017.0 |
| 20260905022023 | 61 | 254 | 1.0 | 3.0 | 0.00 | 0.01 | 0.00 | 80 | 1016.8 |
| 20260905021020 | 62 | 273 | 2.0 | 4.0 | 0.00 | 0.01 | 0.00 | 79 | 1016.8 |
| 20260905020038 | 62 | 257 | 5.0 | 7.0 | 0.00 | 0.01 | 0.00 | 78 | 1016.8 |
| 20260905015035 | 62 | 263 | 3.0 | 6.0 | 0.00 | 0.01 | 0.00 | 77 | 1016.6 |
| 20260905014043 | 62 | 267 | 1.0 | 4.0 | 0.00 | 0.01 | 0.00 | 78 | 1016.6 |
| 20260905013040 | 62 | 0.0 | 0.0 | 0.00 | 0.01 | 0.00 | 79 | 1016.4 | |
| 20260905012038 | 62 | 235 | 2.0 | 7.0 | 0.00 | 0.01 | 0.00 | 80 | 1016.6 |
| 20260905011115 | 62 | 281 | 3.0 | 9.0 | 0.00 | 0.01 | 0.00 | 79 | 1016.6 |
| 20260905010032 | 62 | 276 | 4.0 | 8.0 | 0.00 | 0.01 | 0.00 | 78 | 1016.4 |
| 20260905005049 | 62 | 251 | 2.0 | 6.0 | 0.00 | 0.01 | 0.00 | 78 | 1016.4 |
| 20260905004027 | 62 | 266 | 6.0 | 8.0 | 0.00 | 0.01 | 0.00 | 78 | 1016.5 |
| 20260905003024 | 62 | 277 | 5.0 | 7.0 | 0.00 | 0.01 | 0.00 | 78 | 1016.5 |
| 20260905002022 | 62 | 278 | 0.0 | 1.0 | 0.00 | 0.01 | 0.00 | 77 | 1016.4 |
| 20260905001020 | 62 | 243 | 2.0 | 8.0 | 0.00 | 0.01 | 0.00 | 77 | 1016.4 |
| 20260905000017 | 63 | 251 | 4.0 | 7.0 | 0.00 | 0.01 | 0.00 | 77 | 1016.6 |
| 20260904235045 | 62 | 252 | 5.0 | 8.0 | 0.00 | 0.01 | 0.00 | 77 | 1016.3 |
| 20260904234042 | 63 | 305 | 5.0 | 8.0 | 0.00 | 0.01 | 0.00 | 75 | 1016.1 |
| 20260904233040 | 63 | 272 | 5.0 | 8.0 | 0.00 | 0.01 | 0.00 | 76 | 1016.3 |
| 20260904232037 | 63 | 257 | 7.0 | 10.0 | 0.00 | 0.01 | 0.00 | 75 | 1016.2 |
| 20260904231035 | 63 | 266 | 5.0 | 7.0 | 0.00 | 0.01 | 0.00 | 74 | 1016.1 |
| 20260904230032 | 63 | 264 | 6.0 | 10.0 | 0.00 | 0.01 | 0.00 | 75 | 1016.1 |
| 20260904225030 | 64 | 266 | 7.0 | 10.0 | 0.00 | 0.01 | 0.00 | 75 | 1016.1 |
| 20260904224027 | 64 | 294 | 9.0 | 15.0 | 0.00 | 0.01 | 0.00 | 75 | 1016.0 |
| 20260904223025 | 64 | 280 | 7.0 | 11.0 | 0.00 | 0.01 | 0.00 | 75 | 1015.9 |
| 20260904222022 | 64 | 260 | 8.0 | 11.0 | 0.00 | 0.01 | 0.00 | 75 | 1015.8 |
| 20260904221020 | 64 | 272 | 6.0 | 9.0 | 0.00 | 0.01 | 0.00 | 76 | 1015.7 |
| 20260904220017 | 64 | 270 | 6.0 | 9.0 | 0.00 | 0.01 | 0.01 | 75 | 1015.7 |
| 20260904215104 | 64 | 275 | 5.0 | 8.0 | 0.00 | 0.01 | 0.01 | 75 | 1015.7 |
| 20260904214041 | 64 | 247 | 6.0 | 10.0 | 0.00 | 0.01 | 0.01 | 74 | 1015.9 |
| 20260904213038 | 64 | 263 | 9.0 | 13.0 | 0.00 | 0.01 | 0.01 | 74 | 1015.6 |
| 20260904212035 | 64 | 282 | 4.0 | 11.0 | 0.00 | 0.01 | 0.01 | 75 | 1015.6 |
| 20260904211032 | 63 | 309 | 5.0 | 8.0 | 0.00 | 0.01 | 0.01 | 76 | 1015.4 |
| 20260904210030 | 63 | 271 | 5.0 | 9.0 | 0.00 | 0.01 | 0.01 | 76 | 1015.4 |
| 20260904205027 | 64 | 249 | 5.0 | 8.0 | 0.00 | 0.01 | 0.01 | 75 | 1015.4 |
| 20260904204024 | 64 | 256 | 8.0 | 13.0 | 0.00 | 0.01 | 0.01 | 75 | 1015.3 |
| 20260904203021 | 64 | 266 | 6.0 | 10.0 | 0.00 | 0.01 | 0.01 | 74 | 1015.2 |
| 20260904202018 | 64 | 271 | 6.0 | 9.0 | 0.00 | 0.01 | 0.01 | 75 | 1015.3 |
| 20260904201035 | 64 | 270 | 9.0 | 14.0 | 0.00 | 0.01 | 0.01 | 75 | 1015.2 |
| 20260904200043 | 64 | 282 | 5.0 | 7.0 | 0.00 | 0.01 | 0.01 | 75 | 1015.2 |
| 20260904195100 | 65 | 280 | 3.0 | 7.0 | 0.00 | 0.01 | 0.01 | 74 | 1015.0 |
| 20260904194038 | 64 | 4 | 3.0 | 6.0 | 0.00 | 0.01 | 0.01 | 74 | 1015.0 |
| 20260904193055 | 64 | 261 | 2.0 | 8.0 | 0.00 | 0.01 | 0.01 | 75 | 1014.9 |
| 20260904192032 | 64 | 212 | 6.0 | 8.0 | 0.00 | 0.01 | 0.01 | 75 | 1014.9 |
| 20260904191030 | 64 | 287 | 2.0 | 6.0 | 0.00 | 0.01 | 0.01 | 76 | 1014.8 |
| 20260904190027 | 64 | 264 | 2.0 | 8.0 | 0.00 | 0.01 | 0.01 | 77 | 1014.6 |
| 20260904185025 | 64 | 251 | 6.0 | 11.0 | 0.00 | 0.01 | 0.01 | 77 | 1014.7 |
| 20260904184022 | 64 | 274 | 5.0 | 9.0 | 0.00 | 0.01 | 0.01 | 77 | 1014.5 |
| 20260904183019 | 64 | 250 | 1.0 | 4.0 | 0.00 | 0.01 | 0.01 | 76 | 1014.4 |
| 20260904182017 | 64 | 247 | 3.0 | 8.0 | 0.00 | 0.01 | 0.01 | 74 | 1014.1 |